Flag for Poland Weather past 2 weeks in Radom, Poland

Now
55 °F

Fog.


Feels Like: 55 °F
Forecast: 52 / 60 °F
Wind: 1 mph from Southeast

Location: Kielce

Current Time: Sep 21, 2014 at 2:20:39 AM

Latest Report: Sep 21, 2014 at 1:00 AM


Visibility: 1 mi

Pressure: 29.93 "Hg

Humidity: 99%

Dew point: 54 °F

Location of RadomLocation

Historic Weather in Radom — Graph

°F

Radom temperature yesterday

Maximum temperature yesterday: 62 °F (at 3:00 PM)
Minimum temperature yesterday: 51 °F (at 3:00 AM)
Average temperature yesterday: 55 °F

Past Weeks' High & Low Weather Summary

 TemperatureHumidityPressure
High78 °F (Sep 8, 3:00 PM)100% (Sep 8, 11:00 PM)30.21 "Hg (Sep 8, 11:00 PM)
Low43 °F (Sep 18, 6:00 AM)41% (Sep 18, 4:00 PM)29.92 "Hg (Sep 6, 6:00 PM)
Average61 °F79%30.05 "Hg
* Reported Sep 6 1:00 AM — Sep 21 1:00 AM, Radom, Weather by CustomWeather, © 2014

Note: Actual official high and low records may vary slightly from our data, if they occured in-between our weather recording intervals... More about our weather records

Advertising

Radom weather history for previous 24 hours

 ConditionsComfort  
Time TempWeatherWind HumidityBarometerVisibility
1:00 AM
Sep 21
55 °FFog.1 mph99%29.93 "Hg1 mi
12:00 AM54 °FFog.1 mph100%29.94 "Hg1 mi
11:00 PM
Sep 20
54 °FFog.1 mph100%29.95 "Hg0 mi
10:00 PM53 °FFog.No wind100%29.95 "Hg0 mi
9:00 PM56 °FFog.1 mph100%29.95 "Hg0 mi
8:00 PM57 °FFog.2 mph100%29.96 "Hg1 mi
7:00 PM59 °FFog.1 mph100%29.94 "Hg1 mi
3:00 PM62 °FFog.1 mph89%29.96 "Hg3 mi
2:00 PM61 °FFog.1 mph91%29.97 "Hg2 mi
1:00 PM61 °FFog.2 mph93%29.97 "Hg2 mi
12:00 PM59 °FLow clouds.1 mph96%29.98 "Hg2 mi
11:00 AM57 °FLight rain. Overcast.No wind99%29.98 "Hg2 mi
10:00 AM55 °FRain showers. Overcast.3 mph99%29.99 "Hg1 mi
9:00 AM54 °FLight rain. Overcast.2 mph99%30.00 "Hg2 mi
8:00 AM53 °FRain showers. Overcast.2 mph98%30.00 "Hg2 mi
7:00 AM53 °FSprinkles. Overcast.1 mph94%30.01 "Hg2 mi
6:00 AM52 °FFog.1 mph93%30.01 "Hg5 mi
5:00 AM51 °FOvercast.1 mph95%30.02 "Hg6 mi
4:00 AM51 °FOvercast.No wind94%30.02 "Hg6 mi
3:00 AM51 °FOvercast.1 mph93%30.03 "Hg6 mi
2:00 AM51 °FPassing clouds.1 mph91%30.03 "Hg6 mi
Weather by CustomWeather, © 2014

See weather overviewHow to use our weather pages